{"data":{"norad_id":65147,"intl_designator":"2025-171R","name":"KUIPER-00109","alt_names":[],"object_type":"PAYLOAD","status":"ACTIVE","operator":null,"country":"US","launch_date":"2025-08-11","launch_site_code":"AFETR","launch_vehicle":null,"mission":null,"orbit_class":"UNKNOWN","rcs_meters":null,"size_class":null,"mass_kg":null,"dimensions":null,"purposes":[],"wikipedia_slug":null,"has_3d_model":false,"image_url":null,"decayed_at":null,"tle_current":{"epoch":"2026-05-25T01:21:09.471168Z","epoch_age_seconds":84357,"freshness":"FRESH","line1":"1 65147U 25171R   26145.05635962  .00001699  00000+0  25184-3 0  9990","line2":"2 65147  51.9007 177.8730 0000400  59.8255 300.2747 14.79930668 44237","mean_motion":14.79930668,"eccentricity":4.0e-5,"inclination_deg":51.9007,"raan_deg":177.873,"arg_perigee_deg":59.8255,"mean_anomaly_deg":300.2747,"bstar":0.00025184,"rev_number":4423,"period_min":97.30185549476,"perigee_km":629.26268353116,"apogee_km":629.82329793042,"semimajor_km":7007.6799907308,"source":"CELESTRAK","updated_at":"2026-05-25T13:38:05.169123Z"}}}